User: anonymous   Login
Location: Clatteringshaws Loch
(55.0508°N, 4.2860°W)
Time: 22:36:29
(UTC+01:00)
Language:

ALOS - Orbit

View from above orbital plane
View from above orbital plane
View from above satellite
View from above satellite

Ground track
Ground track

The orbit data is extracted from the following two-line orbital elements,

1 28931U 06002A   17235.19287463  .00000305  00000-0  68957-4 0  9996
2 28931  97.8402 259.1858 0002597  96.4768 263.6729 14.62380983617256
Epoch (UTC): 23 August 2017 04:37:44
Eccentricity: 0.0002597
inclination: 97.8402°
perigee height: 683 km
apogee height: 687 km
right ascension of ascending node: 259.1858°
argument of perigee: 96.4768°
revolutions per day: 14.62380983
mean anomaly at epoch: 263.6729°
orbit number at epoch: 61725

The dashed part of the orbit path shows where the satellite is in the earth's shadow,  

DLR